Content
SEND FEEDBACK

Daily
Averages
Monthly
Summary
United States of America

TOPOCK, ARIZONA


Home > North America > United States > Arizona
Elevation: 874 feet     Latitude: 34 46N     Longitude: 114 37W

WEATHER
 
SELECT A DAY
Number of Records: 134,248;   Date Range: 1/1/95 - 12/18/14
 
SHARE

PRINT THIS DATA

[ ← Previous Day ]
WEATHER ALMANAC - FEBRUARY 13, 2013
[ Next Day → ]
[ °C ]   °F
Weather ElementAverageHighLow
Temperature56.2 °F68 °F (1:56 pm)43 °F (1:56 am)
Dewpoint21.8 °F25 °F (9:56 pm)16 °F (2:56 am)
Humidity27.3 %39 % (11:56 pm)18 % (1:56 pm)
Barometer30.15 in30.24 in (8:56 am)30.07 in (3:56 pm)
Wind Speed10.6 mph21.9 mph (10:56 am)
Wind Gust28.8 mph (11:56 am)
Weather ElementAverage
Visibility10 mi
Wind DirectionSSW (186.5 °)

Weather ElementTotal
Precipitation---
Heating Degree Days9.5 (Base 65)
Growing Degree Days5.5 (Base 50)
Averaged from 23 records on February 13, 2013
WEATHER CONDITIONS BREAKOUT
WIND DIRECTION BREAKOUT
WEATHER BY HOUR - FEBRUARY 13, 2013
[ °C ]   °F
Local TimeTemperatureDewpointHumidityBarometerVisibilityWind DirectionWind SpeedGust SpeedPrecipitationEventsConditions
1:56 AM43.0 °F17.1 °F35 %30.22 in10.0 miWest (270°)6.9 mphClear
2:56 AM45.0 °F16.0 °F31 %30.20 in10.0 miNNW (340°)5.8 mphClear
3:56 AM46.0 °F17.1 °F31 %30.20 in10.0 miNNW (340°)8.1 mphClear
4:56 AM46.0 °F18.0 °F33 %30.21 in10.0 miWNW (300°)8.1 mphClear
5:56 AM44.1 °F19.0 °F37 %30.21 in10.0 miNW (320°)5.8 mphClear
6:56 AM48.0 °F19.9 °F33 %30.22 in10.0 miWNW (300°)4.6 mphClear
7:56 AM53.1 °F21.0 °F29 %30.23 in10.0 miENE (60°)5.8 mphClear
8:56 AM55.0 °F23.0 °F29 %30.24 in10.0 miNorth (10°)12.7 mphClear
9:56 AM60.1 °F21.9 °F23 %30.23 in10.0 miNE (40°)15.0 mph21.9 mphClear
10:56 AM62.1 °F21.9 °F21 %30.21 in10.0 miNNE (30°)21.9 mphClear
11:56 AM64.0 °F21.9 °F20 %30.18 in10.0 miNNE (30°)16.1 mph28.8 mphClear
12:56 PM66.0 °F21.9 °F19 %30.14 in10.0 miNNE (30°)19.6 mphClear
1:56 PM68.0 °F23.0 °F18 %30.11 in10.0 miNNE (20°)13.8 mph24.2 mphClear
2:56 PM68.0 °F23.0 °F18 %30.09 in10.0 miNNE (20°)18.4 mph25.3 mphClear
3:56 PM68.0 °F23.0 °F18 %30.07 in10.0 miNNE (30°)18.4 mph27.6 mphClear
4:56 PM66.0 °F24.1 °F20 %30.07 in10.0 miNNE (20°)12.7 mphClear
5:56 PM63.0 °F23.0 °F22 %30.08 in10.0 miNorth (360°)11.5 mphClear
6:56 PM60.1 °F23.0 °F24 %30.09 in10.0 miNorth (350°)8.1 mphClear
7:56 PM59.0 °F24.1 °F26 %30.09 in10.0 miNW (310°)5.8 mphClear
8:56 PM55.0 °F24.1 °F30 %30.10 in10.0 miWest (270°)8.1 mphClear
9:56 PM53.1 °F25.0 °F34 %30.10 in10.0 miWNW (300°)6.9 mphClear
10:56 PM50.0 °F25.0 °F38 %30.11 in10.0 miWest (270°)3.5 mphClear
11:56 PM48.9 °F25.0 °F39 %30.10 in10.0 miWest (270°)6.9 mphClear
Hourly data recorded from KEED, located miles away from Topock, Arizona







STORIES FROM OUR PARTNERS